changsha , China , ASIA

  • Saturday
    December 15

      Overcast

      39 °F

      Northwest

       

  • Sunday
    December 16

    Sunny  Sunny

    55 °F  36 °F

    East  West

        

  • Monday
    December 17

    Sunny  Sunny

    61 °F  37 °F

    East  South

        

  • Tuesday
    December 18

    Sunny  Cloudy

    63 °F  46 °F

    Southeast  Southeast

        

  • Wednesday
    December 19

    Cloudy  Light rain

    66 °F  48 °F

    North  North

        

  • Thursday
    December 20

    Light rain  Light rain

    57 °F  48 °F

    North  North

        

  • Friday
    December 21

    Light rain  Light rain

    54 °F  46 °F

    North  North

        

Date   Weather Temperature Humidity Total_rain Visibility Wind
23:00 Overcast 42°F 87.6% 0mm 999.9km Northwest  1.1m/s
02:00 Overcast 40°F 91.9% 0mm 999.9km Northwest  1.9m/s
05:00 Overcast 40°F 92.4% 0mm 999.9km Northwest  1.5m/s
08:00 Overcast 43°F 93.8% 0mm 999.9km Northwest  1.3m/s
11:00 Sunny 46°F 70.3% 0mm 999.9km Northwest  1.1m/s
14:00 Sunny 55°F 65.6% 0mm 999.9km Northwest  1.4m/s
17:00 Sunny 52°F 67% 0mm 999.9km Northeast  1.1m/s
20:00 Sunny 51°F 68.5% 0mm 999.9km Northeast  1.1m/s
23:00 Sunny 40°F 76.7% 0mm 999.9km Southeast  0.6m/s
02:00 Sunny 40°F 88% 0mm 999.9km Southwest  0.3m/s
05:00 Sunny 39°F 90.9% 0mm 999.9km Southeast  0.9m/s
08:00 Sunny 36°F 89.8% 0mm 999.9km Southeast  0.5m/s
11:00 Sunny 54°F 57.6% 0mm 999.9km Northeast  0.9m/s
14:00 Sunny 60°F 49.2% 0mm 999.9km Northeast  1.4m/s
17:00 Sunny 60°F 53.1% 0mm 999.9km Northeast  0.8m/s
20:00 Sunny 55°F 40.7% 0mm 999.9km Southeast  1.3m/s
23:00 Sunny 45°F 80% 0mm 999.9km Southeast  1.5m/s
02:00 Sunny 42°F 81.5% 0mm 999.9km Southeast  1.1m/s
05:00 Sunny 38°F 82.8% 0mm 999.9km Southeast  0.9m/s
08:00 Sunny 38°F 85.7% 0mm 999.9km Southeast  1.0m/s
11:00 Sunny 53°F 60.3% 0mm 999.9km Southeast  1.4m/s
14:00 Sunny 62°F 55.1% 0mm 999.9km Southeast  2.2m/s
17:00 Sunny 59°F 62.1% 0mm 999.9km Southeast  2.2m/s
20:00 Sunny 51°F 49.4% 0mm 999.9km Southeast  1.3m/s
23:00 Cloudy 66°F 90% 0mm 999.9km Southeast  1.3m/s
02:00 Cloudy 65°F 91.1% 0mm 999.9km Southeast  1.1m/s
05:00 Cloudy 61°F 92.2% 0mm 999.9km Southeast  1.9m/s
08:00 Cloudy 59°F 93.3% 0mm 999.9km Southeast  1.8m/s
11:00 Cloudy 58°F 92.7% 0mm 999.9km Northeast  2.1m/s
14:00 Cloudy 55°F 92.2% 0mm 999.9km Northeast  2.4m/s
17:00 Cloudy 53°F 92.7% 0mm 999.9km Northeast  1.7m/s
20:00 Cloudy 47°F 83.6% 0mm 999.9km Northeast  3.5m/s
23:00 Light rain 57°F 97.3% 2mm 999.9km Northeast  2.5m/s
02:00 Moderate rain 53°F 97.3% 3mm 999.9km Northwest  2.8m/s
05:00 Moderate rain 54°F 97.3% 4.7mm 999.9km Northwest  1.8m/s
08:00 Light rain 55°F 96.8% 0.1mm 999.9km Northwest  2.4m/s
11:00 Light rain 56°F 96.3% 1.7mm 999.9km Southeast  1.7m/s
14:00 Light rain 53°F 95% 1.6mm 999.9km Northwest  3.5m/s
17:00 Overcast 51°F 91.7% 0mm 999.9km Northeast  3.3m/s
20:00 Light rain 49°F 90.2% 0.4mm 999.9km Northwest  2.4m/s
23:00 Light rain 49°F 94.9% 1.1mm 999.9km Northwest  2.4m/s
02:00 Light rain 49°F 93.3% 0.3mm 999.9km Northeast  2.5m/s
05:00 Light rain 49°F 91.8% 0.1mm 999.9km Northwest  2.3m/s
08:00 Light rain 49°F 91.1% 0.8mm 999.9km Northwest  2.6m/s
11:00 Light rain 52°F 90.4% 0.1mm 999.9km Northwest  2.9m/s
14:00 Light rain 53°F 88.7% 0.4mm 999.9km Northeast  1.9m/s
17:00 Light rain 52°F 85.7% 1.2mm 999.9km Northwest  2.3m/s
20:00 Light rain 52°F 83.6% 0.3mm 999.9km Northwest  1.8m/s
23:00 Light rain 50°F 95.2% 0.1mm 999.9km Northwest  2.0m/s
02:00 Light rain 49°F 85.6% 0.3mm 999.9km Northwest  1.3m/s
05:00 Light rain 48°F 84.6% 0.8mm 999.9km Northwest  1.8m/s
317| 886| 775| 770| 112| 972| 422| 256| 779| 254|